Location: Navajo
(48.7922°N, 105.0603°W)
Time: 03:31:11
(UTC+00:00)

ITUPSAT 1 - Pass Details

Date: 03 July 2022
Orbit: 701 x 711 km, 98.6° (Epoch: 07 August)

Event Time Altitude Azimuth Distance (km) Brightness Sun altitude
Rises 04:11:00 0° 9° (N) 3,112 ? -8.5°
Reaches altitude 10° 04:13:20 10° 4° (N) 2,191 ? -8.7°
Maximum altitude 04:17:54 46° 292° (WNW) 956 ? -9.2°
Drops below altitude 10° 04:22:27 10° 220° (SW) 2,181 ? -9.7°
Sets 04:24:47 0° 214° (SW) 3,097 ? -9.9°
